Flag Weather past 2 weeks in Houston, Texas, U.S.A.

Now
43 °F

Clear.


Feels Like: 41 °F
Forecast: 46 / 70 °F
Wind: 3 mph from Northeast

Location: Houston Hobby Airport

Current Time: Nov 28, 2014 at 3:59:56 AM

Latest Report: Nov 28, 2014 at 2:53 AM


Visibility: 10 mi

Pressure: 30.39 "Hg

Humidity: 93%

Dew point: 41 °F

Location of HoustonLocation

Historic Weather in Houston — Graph

°F

Houston temperature yesterday

Maximum temperature yesterday: 66 °F (at 2:53 PM)
Minimum temperature yesterday: 45 °F (at 11:53 PM)
Average temperature yesterday: 55 °F

Past Weeks' High & Low Weather Summary

 TemperatureHumidityPressure
High80 °F (Nov 23, 2:53 PM)100% (Nov 15, 11:53 PM)30.57 "Hg (Nov 15, 11:53 PM)
Low34 °F (Nov 19, 2:53 AM)22% (Nov 25, 2:53 PM)29.55 "Hg (Nov 23, 3:53 PM)
Average54 °F67%30.19 "Hg
* Reported Nov 13 2:53 AM — Nov 28 2:53 AM, Houston, Weather by CustomWeather, © 2014

Note: Actual official high and low records may vary slightly from our data, if they occured in-between our weather recording intervals... More about our weather records

Advertising

Houston weather history for previous 24 hours

 ConditionsComfort  
Time TempWeatherWind HumidityBarometerVisibility
2:53 AM
Nov 28
43 °FClear.3 mph93%30.39 "Hg10 mi
1:53 AM44 °FClear.No wind93%30.39 "Hg10 mi
12:53 AM45 °FClear.No wind86%30.40 "Hg10 mi
11:53 PM
Nov 27
45 °FClear.No wind86%30.41 "Hg10 mi
10:53 PM46 °FClear.No wind83%30.43 "Hg10 mi
9:53 PM49 °FClear.No wind74%30.44 "Hg10 mi
8:53 PM51 °FClear.No wind69%30.43 "Hg10 mi
7:53 PM50 °FClear.3 mph68%30.43 "Hg10 mi
6:53 PM53 °FClear.No wind61%30.43 "Hg10 mi
5:53 PM59 °FClear.No wind42%30.42 "Hg10 mi
4:53 PM63 °FSunny.3 mph34%30.42 "Hg10 mi
3:53 PM65 °FSunny.No wind29%30.42 "Hg10 mi
2:53 PM66 °FSunny.No wind28%30.42 "Hg10 mi
1:53 PM65 °FSunny.7 mph29%30.43 "Hg10 mi
12:53 PM64 °FSunny.6 mph29%30.45 "Hg10 mi
11:53 AM63 °FSunny.5 mph31%30.48 "Hg10 mi
10:53 AM60 °FSunny.9 mph38%30.51 "Hg10 mi
9:53 AM56 °FSunny.10 mph44%30.52 "Hg10 mi
8:53 AM54 °FSunny.13 mph47%30.50 "Hg10 mi
7:53 AM51 °FSunny.12 mph56%30.48 "Hg10 mi
6:53 AM50 °FClear.10 mph61%30.46 "Hg10 mi
5:53 AM50 °FClear.8 mph66%30.43 "Hg10 mi
4:53 AM48 °FClear.6 mph74%30.40 "Hg10 mi
3:53 AM50 °FClear.3 mph74%30.39 "Hg10 mi
Weather by CustomWeather, © 2014

See weather overviewHow to use our weather pages